Location: Middlebury
(44.0153°N, 73.1678°W)
Time: 11:37:45
(UTC-04:00)

QB50P2 - Pass Details

Date: 19 June 2024
Orbit: 561 x 578 km, 98.0° (Epoch: 18 July)

Event Time Altitude Azimuth Distance (km) Brightness Sun altitude
Rises 02:36:58 0° 30° (NNE) 2,768 ? -18.6°
Reaches altitude 10° 02:39:46 10° 51° (NE) 1,863 ? -18.3°
Maximum altitude 02:42:27 17° 93° (E) 1,456 ? -18.1°
Drops below altitude 10° 02:45:04 10° 134° (SE) 1,840 ? -17.9°
Enters shadow 02:45:27 - 138° (SE) 1,944 ? -17.9°
